Content
SEND FEEDBACK

Daily
Averages
Monthly
Summary
United States of America

FORT BLISS, TEXAS


Home > North America > United States > Texas
Elevation: 3917 feet     Latitude: 31 48N     Longitude: 106 24W

WEATHER
 
SELECT A DAY
Number of Records: 172,110;   Date Range: 1/1/95 - 8/30/14
 
SHARE

PRINT THIS DATA

[ ← Previous Day ]
WEATHER ALMANAC - SEPTEMBER 25, 2013
[ Next Day → ]
[ °C ]   °F
Weather ElementAverageHighLow
Temperature75.6 °F90 °F (3:51 pm)60.1 °F (6:51 am)
Dewpoint45.7 °F51.1 °F (11:51 pm)39 °F (5:51 am)
Humidity36.1 %58 % (7:51 am)22 % (3:51 pm)
Barometer29.71 in29.81 in (1:51 am)29.61 in (5:51 pm)
Wind Speed5.2 mph17.3 mph (3:51 pm)
Wind Gust24.2 mph (3:51 pm)
Weather ElementAverage
Visibility10 mi
Wind DirectionESE (112.2 °)

Weather ElementTotal
Precipitation---
Cooling Degree Days10.1 (Base 65)
Growing Degree Days25.1 (Base 50)
Averaged from 23 records on September 25, 2013
WEATHER CONDITIONS BREAKOUT
WIND DIRECTION BREAKOUT
WEATHER BY HOUR - SEPTEMBER 25, 2013
[ °C ]   °F
Local TimeTemperatureDewpointHumidityBarometerVisibilityWind DirectionWind SpeedGust SpeedPrecipitationEventsConditions
1:51 AM64.0 °F44.1 °F48 %29.81 in10.0 miCalmClear
2:51 AM63.0 °F44.1 °F50 %29.80 in10.0 miCalmClear
3:51 AM63.0 °F42.1 °F46 %29.79 in10.0 miCalmClear
4:51 AM64.9 °F43.0 °F45 %29.78 in10.0 miCalmClear
5:51 AM64.0 °F39.0 °F40 %29.78 in10.0 miCalmClear
6:51 AM60.1 °F43.0 °F53 %29.81 in10.0 miCalmClear
7:51 AM61.0 °F46.0 °F58 %29.81 in10.0 miCalmClear
8:51 AM69.1 °F42.1 °F38 %29.79 in10.0 miCalmClear
9:51 AM72.0 °F41.0 °F33 %29.80 in10.0 miSSE (150°)5.8 mphClear
10:51 AM75.9 °F42.1 °F30 %29.79 in10.0 miSSE (160°)8.1 mphClear
11:51 AM81.0 °F44.1 °F27 %29.75 in10.0 miVariable5.8 mphClear
12:51 PM84.0 °F46.9 °F27 %29.72 in10.0 miSouth (190°)6.9 mphClear
1:51 PM86.0 °F48.9 °F28 %29.68 in10.0 miSSE (160°)9.2 mph16.1 mphPartly Cloudy
2:51 PM89.1 °F50.0 °F26 %29.65 in10.0 miSSW (200°)10.4 mph19.6 mphPartly Cloudy
3:51 PM90.0 °F46.0 °F22 %29.63 in10.0 miSW (230°)17.3 mph24.2 mphPartly Cloudy
4:51 PM89.1 °F45.0 °F22 %29.62 in10.0 miWSW (250°)10.4 mph18.4 mphPartly Cloudy
5:51 PM88.0 °F46.9 °F24 %29.61 in10.0 miSouth (190°)6.9 mphPartly Cloudy
6:51 PM84.9 °F46.9 °F27 %29.61 in10.0 miSouth (190°)5.8 mphPartly Cloudy
7:51 PM80.1 °F48.0 °F32 %29.62 in10.0 miSSE (150°)5.8 mphPartly Cloudy
8:51 PM78.1 °F50.0 °F37 %29.62 in10.0 miSSE (150°)8.1 mphPartly Cloudy
9:51 PM78.1 °F50.0 °F37 %29.63 in10.0 miSSW (200°)4.6 mphPartly Cloudy
10:51 PM77.0 °F50.0 °F39 %29.63 in10.0 miSouth (190°)5.8 mphPartly Cloudy
11:51 PM75.9 °F51.1 °F42 %29.62 in10.0 miSouth (170°)8.1 mphScattered Clouds
Hourly data recorded from KELP, located miles away from Fort Bliss, Texas







STORIES FROM OUR PARTNERS